• In Russia
  • List of Countries
  • For 7 days
  • Water Temperature
  • Weather Map
  • Weather Widgets
  • user-avatar
    Login

    Hourly Weather Chakhansur

    Today, 22 September, Sunday

    Time Temperature Precipitation Wind Pressure Humidity
    00:00 +26°C° 0 mm 1 mps 712 mmHg 14%
    01:00 +25°C° 0 mm 1 mps 712 mmHg 16%
    02:00 +25°C° 0 mm 1 mps 712 mmHg 15%
    03:00 +25°C° 0 mm 1 mps 712 mmHg 16%
    04:00 +25°C° 0 mm 1 mps 712 mmHg 19%
    05:00 +26°C° 0 mm 1 mps 713 mmHg 18%
    06:00 +28°C° 0 mm 1 mps 714 mmHg 16%
    07:00 +29°C° 0 mm 1 mps 714 mmHg 15%
    08:00 +32°C° 0 mm 1 mps 715 mmHg 13%
    09:00 +36°C° 0 mm 2 mps 715 mmHg 10%
    10:00 +39°C° 0 mm 2 mps 716 mmHg 8%
    11:00 +41°C° 0 mm 2 mps 715 mmHg 7%
    12:00 +42°C° 0 mm 2 mps 715 mmHg 6%
    13:00 +43°C° 0 mm 2 mps 715 mmHg 5%
    14:00 +45°C° 0 mm 2 mps 714 mmHg 5%
    15:00 +44°C° 0 mm 1 mps 714 mmHg 4%
    16:00 +44°C° 0 mm 1 mps 714 mmHg 4%
    17:00 +40°C° 0 mm 1 mps 713 mmHg 6%
    18:00 +34°C° 0 mm 1 mps 713 mmHg 7%
    19:00 +30°C° 0 mm 1 mps 713 mmHg 9%
    20:00 +30°C° 0 mm 1 mps 713 mmHg 9%
    21:00 +30°C° 0 mm 2 mps 714 mmHg 9%
    22:00 +30°C° 0 mm 2 mps 714 mmHg 9%
    23:00 +29°C° 0 mm 4 mps 714 mmHg 19%

    Tomorrow, 23 September, Monday

    Time Temperature Precipitation Wind Pressure Humidity
    00:00 +28°C° 0 mm 7 mps 715 mmHg 30%
    01:00 +27°C° 0 mm 9 mps 715 mmHg 41%
    02:00 +26°C° 0 mm 9 mps 715 mmHg 43%
    03:00 +24°C° 0 mm 9 mps 715 mmHg 45%
    04:00 +23°C° 0 mm 9 mps 715 mmHg 47%
    05:00 +22°C° 0 mm 9 mps 716 mmHg 47%
    06:00 +22°C° 0 mm 9 mps 717 mmHg 46%
    07:00 +22°C° 0 mm 8 mps 717 mmHg 46%
    08:00 +26°C° 0 mm 7 mps 717 mmHg 39%
    09:00 +28°C° 0 mm 6 mps 718 mmHg 33%
    10:00 +32°C° 0 mm 5 mps 718 mmHg 27%
    11:00 +34°C° 0 mm 5 mps 718 mmHg 23%
    12:00 +36°C° 0 mm 4 mps 717 mmHg 19%
    13:00 +38°C° 0 mm 3 mps 717 mmHg 15%
    14:00 +39°C° 0 mm 3 mps 716 mmHg 14%
    15:00 +39°C° 0 mm 2 mps 716 mmHg 12%
    16:00 +40°C° 0 mm 2 mps 715 mmHg 11%
    17:00 +37°C° 0 mm 2 mps 715 mmHg 14%
    18:00 +34°C° 0 mm 2 mps 715 mmHg 17%
    19:00 +29°C° 0 mm 2 mps 715 mmHg 21%
    20:00 +29°C° 0 mm 3 mps 715 mmHg 24%
    21:00 +28°C° 0 mm 3 mps 715 mmHg 28%
    22:00 +27°C° 0 mm 4 mps 715 mmHg 32%
    23:00 +26°C° 0 mm 4 mps 715 mmHg 35%

    Day after tomorrow, 24 September, Tuesday

    Time Temperature Precipitation Wind Pressure Humidity
    00:00 +25°C° 0 mm 3 mps 715 mmHg 37%
    01:00 +24°C° 0 mm 3 mps 715 mmHg 40%
    02:00 +22°C° 0 mm 3 mps 714 mmHg 43%
    03:00 +21°C° 0 mm 3 mps 714 mmHg 45%
    04:00 +21°C° 0 mm 2 mps 714 mmHg 47%
    05:00 +21°C° 0 mm 2 mps 715 mmHg 45%
    06:00 +23°C° 0 mm 2 mps 715 mmHg 42%
    07:00 +24°C° 0 mm 2 mps 716 mmHg 40%
    08:00 +27°C° 0 mm 2 mps 716 mmHg 34%
    09:00 +29°C° 0 mm 2 mps 717 mmHg 29%
    10:00 +32°C° 0 mm 1 mps 717 mmHg 23%
    11:00 +34°C° 0 mm 1 mps 717 mmHg 19%
    12:00 +36°C° 0 mm 1 mps 716 mmHg 16%
    13:00 +39°C° 0 mm 1 mps 715 mmHg 12%
    14:00 +40°C° 0 mm 1 mps 715 mmHg 11%
    15:00 +40°C° 0 mm 1 mps 715 mmHg 10%
    16:00 +41°C° 0 mm 1 mps 715 mmHg 9%
    17:00 +36°C° 0 mm 1 mps 714 mmHg 11%
    18:00 +32°C° 0 mm 1 mps 714 mmHg 14%
    19:00 +29°C° 0 mm 1 mps 714 mmHg 17%
    20:00 +28°C° 0 mm 1 mps 714 mmHg 17%
    21:00 +25°C° 0 mm 0 mps 714 mmHg 18%
    22:00 +25°C° 0 mm 0 mps 714 mmHg 19%
    23:00 +27°C° 0 mm 1 mps 714 mmHg 20%

    25 September, Wednesday

    Time Temperature Precipitation Wind Pressure Humidity
    00:00 +27°C° 0 mm 3 mps 714 mmHg 21%
    01:00 +27°C° 0 mm 4 mps 714 mmHg 22%
    02:00 +26°C° 0 mm 4 mps 714 mmHg 24%
    03:00 +25°C° 0 mm 4 mps 714 mmHg 25%
    04:00 +23°C° 0 mm 4 mps 714 mmHg 27%
    05:00 +24°C° 0 mm 3 mps 715 mmHg 26%
    06:00 +25°C° 0 mm 3 mps 715 mmHg 25%
    07:00 +25°C° 0 mm 3 mps 716 mmHg 24%
    08:00 +28°C° 0 mm 3 mps 716 mmHg 20%
    09:00 +31°C° 0 mm 2 mps 717 mmHg 17%
    10:00 +35°C° 0 mm 2 mps 717 mmHg 14%
    11:00 +37°C° 0 mm 2 mps 717 mmHg 12%
    12:00 +39°C° 0 mm 1 mps 717 mmHg 10%
    13:00 +41°C° 0 mm 1 mps 716 mmHg 8%
    14:00 +41°C° 0 mm 1 mps 716 mmHg 8%
    15:00 +42°C° 0 mm 1 mps 716 mmHg 7%
    16:00 +42°C° 0 mm 1 mps 715 mmHg 6%
    17:00 +37°C° 0 mm 1 mps 715 mmHg 8%
    18:00 +33°C° 0 mm 1 mps 715 mmHg 10%
    19:00 +29°C° 0 mm 1 mps 715 mmHg 13%
    20:00 +29°C° 0 mm 1 mps 715 mmHg 13%
    21:00 +28°C° 0 mm 1 mps 715 mmHg 13%
    22:00 +28°C° 0 mm 1 mps 715 mmHg 14%
    23:00 +28°C° 0 mm 1 mps 715 mmHg 14%

    26 September, Thursday

    Time Temperature Precipitation Wind Pressure Humidity
    00:00 +28°C° 0 mm 2 mps 715 mmHg 14%
    01:00 +28°C° 0 mm 3 mps 715 mmHg 14%
    02:00 +27°C° 0 mm 2 mps 715 mmHg 16%
    03:00 +26°C° 0 mm 2 mps 715 mmHg 18%
    04:00 +25°C° 0 mm 1 mps 715 mmHg 19%
    05:00 +26°C° 0 mm 1 mps 716 mmHg 18%
    06:00 +28°C° 0 mm 1 mps 716 mmHg 16%
    07:00 +29°C° 0 mm 1 mps 717 mmHg 15%
    08:00 +32°C° 0 mm 2 mps 717 mmHg 13%
    09:00 +36°C° 0 mm 2 mps 718 mmHg 11%
    10:00 +39°C° 0 mm 3 mps 718 mmHg 9%
    11:00 +42°C° 0 mm 3 mps 718 mmHg 8%
    12:00 +43°C° 0 mm 3 mps 717 mmHg 7%
    13:00 +45°C° 0 mm 3 mps 717 mmHg 7%
    14:00 +45°C° 0 mm 2 mps 716 mmHg 6%
    15:00 +45°C° 0 mm 2 mps 716 mmHg 6%
    16:00 +46°C° 0 mm 2 mps 715 mmHg 6%
    17:00 +41°C° 0 mm 2 mps 715 mmHg 7%
    18:00 +38°C° 0 mm 2 mps 715 mmHg 9%
    19:00 +35°C° 0 mm 2 mps 715 mmHg 10%
    20:00 +34°C° 0 mm 2 mps 715 mmHg 10%
    21:00 +34°C° 0 mm 2 mps 715 mmHg 11%
    22:00 +32°C° 0 mm 2 mps 715 mmHg 11%
    23:00 +31°C° 0 mm 2 mps 715 mmHg 13%

    27 September, Friday

    Time Temperature Precipitation Wind Pressure Humidity
    00:00 +30°C° 0 mm 2 mps 715 mmHg 14%
    01:00 +30°C° 0 mm 2 mps 715 mmHg 16%
    02:00 +28°C° 0 mm 2 mps 715 mmHg 16%
    03:00 +27°C° 0 mm 1 mps 715 mmHg 17%
    04:00 +26°C° 0 mm 1 mps 715 mmHg 18%
    05:00 +28°C° 0 mm 1 mps 715 mmHg 16%
    06:00 +29°C° 0 mm 1 mps 716 mmHg 14%
    07:00 +31°C° 0 mm 1 mps 716 mmHg 12%
    08:00 +34°C° 0 mm 1 mps 717 mmHg 10%
    09:00 +37°C° 0 mm 1 mps 717 mmHg 8%
    10:00 +41°C° 0 mm 1 mps 717 mmHg 6%
    11:00 +42°C° 0 mm 2 mps 717 mmHg 5%
    12:00 +45°C° 0 mm 2 mps 716 mmHg 5%
    13:00 +46°C° 0 mm 2 mps 716 mmHg 4%
    14:00 +47°C° 0 mm 2 mps 715 mmHg 4%
    15:00 +47°C° 0 mm 2 mps 715 mmHg 4%
    16:00 +47°C° 0 mm 2 mps 714 mmHg 4%
    17:00 +42°C° 0 mm 2 mps 714 mmHg 6%
    18:00 +38°C° 0 mm 2 mps 713 mmHg 7%
    19:00 +33°C° 0 mm 1 mps 713 mmHg 9%
    20:00 +34°C° 0 mm 2 mps 713 mmHg 9%
    21:00 +34°C° 0 mm 3 mps 713 mmHg 9%
    22:00 +35°C° 0 mm 4 mps 714 mmHg 9%
    23:00 +34°C° 0 mm 4 mps 713 mmHg 11%
    Show more